Location: Donald C. Martin Observatory
(38.3885°N, 82.3916°W)
Time: 02:36:06
(UTC-05:00)

Daily predictions for brighter satellites

Satellite Brightness Start Highest point End
(mag) Time Altitude Azimuth Time Altitude Azimuth Time Altitude Azimuth
CENTAUR R/B 3.5 03:53:26 60° NE 03:53:41 60° NE 04:02:04 10° SE
Cosmos 1697 Rocket 4.5 04:02:00 27° E 04:02:00 27° E 04:06:31 10° NE
Cosmos 2227 Rocket 4.1 04:10:03 21° SE 04:10:03 21° SE 04:11:56 10° SE
Okean O Rocket 4.3 04:09:01 10° NE 04:10:08 16° NE 04:10:08 16° NE
Lacrosse 5 rocket 4.5 04:14:45 11° ENE 04:14:45 11° ENE 04:15:09 10° ENE
Cosmos 2297 Rocket 3.3 04:22:28 38° ESE 04:22:28 38° ESE 04:26:09 10° SE
CZ-4B R/B 4.1 04:25:42 10° NNE 04:30:54 44° E 04:32:44 33° SE
CZ-3 R/B 3.6 04:27:10 43° SW 04:33:16 56° S 04:41:20 10° ESE
BREEZE-M DEB (TANK) 4.3 04:39:18 51° SSE 04:39:18 51° SSE 04:47:26 10° SE
CZ-4B DEB 4.4 04:38:20 10° NNE 04:43:48 69° ESE 04:44:18 65° SE
Cosmos 2082 3.6 04:48:38 83° ENE 04:48:38 83° ENE 04:54:21 10° SSE
Cosmos 2278 3.9 04:51:08 60° N 04:51:08 60° N 04:55:52 10° NNE
PAYLOAD B 4.0 04:53:29 10° NNE 04:59:00 85° WNW 04:59:33 73° SSW
CZ-4B R/B 4.3 05:08:16 10° N 05:11:58 59° N 05:11:58 59° N
Cosmos 1980 Rocket 2.5 05:09:28 13° S 05:14:28 65° ESE 05:20:05 10° NNE
SJ 16-02 2.2 05:11:27 12° S 05:15:22 50° ESE 05:19:40 10° NNE
Cosmos 2369 4.2 05:17:53 40° NW 05:17:53 40° NW 05:22:45 10° N
COSMO-SKYMED 1 3.9 05:15:17 10° SE 05:19:19 40° ENE 05:23:23 10° N
Cosmos 1656 4.1 05:20:56 39° NW 05:20:56 39° NW 05:25:27 10° N
Aureole 1 Rocket 4.0 05:14:53 10° NNW 05:22:27 86° WSW 05:28:13 10° SSE
Meteor 2-10 Rocket 3.3 05:20:58 24° SSW 05:24:00 73° W 05:29:02 10° N
Cosmos 1937 Rocket 4.4 05:25:18 31° NW 05:25:18 31° NW 05:28:56 10° N
Cosmos 2285 Rocket 4.2 05:21:36 22° NW 05:25:30 49° WSW 05:31:37 10° S
Cosmos 1125 Rocket 3.8 05:26:28 10° S 05:31:37 68° ESE 05:36:46 10° NNE
IRS-1C Rocket 4.0 05:26:54 10° N 05:32:08 64° WNW 05:37:18 10° SSW
Hubble Space Telescope 2.9 05:32:15 14° S 05:33:33 16° SSE 05:36:09 10° SE
ATLAS 5 CENTAUR R/B 3.6 05:29:51 10° S 05:33:41 29° ESE 05:37:47 10° NE
Cosmos 372 Rocket 4.0 05:31:20 10° S 05:36:24 76° ESE 05:41:32 10° NNE
Cosmos 1869 Rocket 3.6 05:35:57 10° NNW 05:40:16 53° W 05:44:35 10° S
Cosmos 1934 Rocket 4.0 05:37:27 10° SSW 05:43:41 59° W 05:49:59 10° N
CENTAUR R/B 3.7 05:40:44 25° WNW 05:44:12 34° WSW 05:51:34 10° S
Cosmos 1707 Rocket 3.6 05:40:17 10° SSW 05:44:38 54° W 05:49:02 10° N
Cosmos 1697 Rocket 3.1 05:43:48 31° WSW 05:45:38 39° WNW 05:50:53 10° N
SL-16 R/B 3.7 05:41:15 10° S 05:46:26 38° ESE 05:51:37 10° NE
Okean O Rocket 3.2 05:45:42 10° NNW 05:47:37 19° NW 05:47:37 19° NW
Cosmos 2227 Rocket 3.6 05:52:00 18° SW 05:52:00 18° SW 05:54:20 10° SSW
Cosmos 2123 Rocket 3.9 05:45:39 10° NNW 05:51:48 65° W 05:57:58 10° S
Lacrosse 5 rocket 1.2 05:50:28 24° NW 05:52:44 88° NE 05:56:50 10° SE
OAO 3 Rocket 3.9 05:53:20 26° WSW 05:55:36 42° SSW 06:00:16 10° SE
SEDSat Delta rocket 4.2 05:57:57 18° SW 06:00:42 33° S 06:04:33 10° ESE
Cosmos 468 4.4 05:56:13 10° NNW 06:01:24 68° WSW 06:06:34 10° S
Cosmos 2297 Rocket 3.5 06:04:25 19° WSW 06:04:25 19° WSW 06:08:00 10° SW
Geosat 4.3 05:59:39 10° SE 06:04:38 71° ENE 06:09:39 10° NNW
SKYMED 2 3.6 06:03:01 10° S 06:07:16 56° W 06:11:33 10° NNW
Cosmos 1153 Rocket 4.4 06:03:50 10° S 06:09:57 81° W 06:16:09 10° N
CZ-2C R/B 4.2 06:05:55 10° SSW 06:10:18 38° W 06:14:39 10° NNW
Cosmos 2242 Rocket 3.6 06:06:02 10° SSW 06:10:35 74° W 06:15:11 10° N
CZ-4B R/B 4.3 06:06:57 10° NNW 06:11:09 23° WNW 06:14:39 13° WSW
Cosmos 1269 Rocket 4.1 06:07:00 10° NNW 06:12:19 84° ENE 06:17:35 10° SSE
Cosmos 1606 4.1 06:09:46 10° SSE 06:13:23 42° E 06:16:59 10° NNE
BREEZE-M DEB (TANK) 4.1 06:13:53 10° NW 06:17:08 45° NE 06:27:17 10° ESE
Cosmos 1484 Rocket 3.7 06:18:22 10° NNE 06:22:18 55° E 06:26:13 10° S
Cosmos 405 3.1 06:19:01 10° NNW 06:22:29 51° W 06:25:57 10° S
NOAA 6 4.5 06:19:01 10° N 06:23:47 39° WNW 06:28:31 10° SW
MTI 4.1 06:20:49 10° S 06:23:49 40° W 06:26:52 10° NNW
Cosmos 405 Rocket 3.0 06:22:59 10° SSW 06:26:51 47° WNW 06:30:40 10° N
MSX 3.9 06:24:12 10° N 06:29:52 62° WNW 06:35:33 10° SSW
IDEFIX/ARIANE 42P 3.2 06:27:06 10° N 06:31:46 34° WNW 06:36:25 10° SW
Meteor 1-25 Rocket 4.3 06:30:13 10° N 06:35:57 87° W 06:41:44 10° S
Cosmos 2263 Rocket 2.9 06:30:21 10° NNW 06:35:58 60° ENE 06:41:34 10° SE
CZ-2C R/B 2.9 06:32:13 10° N 06:36:59 42° WNW 06:41:50 10° SW
Radarsat Rocket 4.2 06:31:43 10° N 06:37:18 48° WNW 06:43:07 10° SW
SJ-12 4.1 06:34:46 10° N 06:38:49 53° WNW 06:42:50 10° SSW
Aureole 3 2.6 06:36:30 10° NNW 06:39:26 56° W 06:42:27 10° S
Okean-O 3.6 06:38:24 10° NNW 06:42:08 27° WNW 06:45:50 10° SW
COSMOS 2455 3.0 06:37:59 10° NW 06:43:53 58° WSW 06:49:46 10° S
Cosmos 1908 Rocket 3.6 06:40:56 10° N 06:45:21 89° ENE 06:49:43 10° S
Cosmos 2322 Rocket 2.2 06:40:27 10° SSW 06:46:04 68° WNW 06:51:46 10° NNE
EO 1 Del DPAF 3.9 06:43:21 10° SSW 06:46:51 34° W 06:50:23 10° NNW
Thor Agena Rocket 3.9 06:43:33 10° SSE 06:48:48 75° ENE 06:54:02 10° N
CZ-4 R/B 2.5 06:45:24 10° NNE 06:49:07 47° E 06:52:49 10° S
Cosmos 1862 Rocket 4.3 06:46:42 10° SW 06:50:31 30° WNW 06:54:24 10° NNW
Cosmos 2100 Rocket 4.0 06:45:39 10° SSW 06:51:42 60° W 06:57:47 10° N
